Starlink 3075

operational
NORAD ID: 49409 Int'l Des: 2021-104 Owner: SPXS Country: US Constellation: starlink
LEOCIRCULAR

Starlink 3075について

説明を読み込み中...

リアルタイム位置

3D地球を読み込み中...

次回通過

高度履歴

Altitude vs Time

uPlot chart will show altitude changes over time

軌道要素

1 49409U 21104B 25304.82344066 .00004601 00000-0 30677-3 0 9998
2 49409 53.2157 87.6230 0002403 85.0086 275.1181 15.08867412219181
Epoch: Oct 31, 2025 • Age: 14 hours

現在のステータス

高度 556.7 km
速度 7.58 km/s
衛星直下点 -45.84°S, 152.76°W
打ち上げ日 Nov 13, 2021
運用期間 3.9 years
タイプ internet

技術仕様

分類 Payload
質量 290.00 kg
乾燥質量 270.00 kg
総質量 290.00 kg
長さ 0.20 m
直径 2.80 m
スパン 9.00 m
形状 Box + pan
製造者 SPXS
バスタイプ Starlink
フェーズステータス In Orbit
所有者/国 SPXS/US

大規模コンステレーション

Loading constellations...